Погода в Оськине

Россия / Томская область     56°30′44″N   84°09′08″E
темп.,
°C
ветер,
м/с
пор.,
м/с
влажн.,
%
обл.,
%
осадки,
мм/ч
давл.,
гПа
погр.,
м
15 мая, сб
сб1501:00+10ююз2647100 0.0 1021155
04:00+11юз41244100 0.0 1019423
07:00+11зюз5155899 0.4 1018555
10:00+15зюз5134876 0.2 1017626
13:00+23зюз6103673 0.2 10151455
16:00+26з6113474 0.0 10132420
19:00+25з6123729 0.0 10112321
22:00+12св2791100 3.3 1015280
16 мая, вс
вс1601:00+11ссв2696100 3.3 1016179
04:00+9всв249871 0.0 1016119
07:00+10вюв249090 0.0 1015214
10:00+15ююв2370100 0.0 1012631
13:00+13ссв3494100 2.2 1012191
16:00+12св349099 1.8 1011316
19:00+9св489373 5.1 1011383
22:00+8св379175 0.0 1014417
17 мая, пн
пн1701:00+5ссв259817 0.0 1016147
04:00+4ссв259817 0.0 1016121
07:00+5св2486100 0.0 1018180
10:00+11всв115557 0.0 1018600
13:00+16с1141100 0.0 10171234
16:00+17з234368 0.0 10161510
19:00+16юз1352100 0.0 1014903
22:00+12ююв2671100 0.0 1012108
18 мая, вт
вт1801:00+13ююз41283100 0.6 1009422
04:00+13ююз41193100 2.0 1005374
07:00+14з31095100 5.5 1005532
10:00+15зсз3683100 0.1 1004713
13:00+17зсз4672100 0.2 1004943
16:00+17ссз358084 1.6 1004832
19:00+12ссз389136 3.2 1006587
22:00+10ссв3793100 0.1 1008526
19 мая, ср
ср1901:00+8ссв4794100 0.3 1009550
04:00+7ссв3795100 0.1 1009418
07:00+7ссв2693100 0.1 1009331
10:00+8св3773100 0.0 1010572
13:00+13св353797 0.0 10091806
16:00+12ссв5532100 0.0 10102052
19:00+12ссв363171 0.0 10102491
22:00+6ссв245514 0.0 101157